Regional Weather Roundup
Issued by NWS

Home | Current Version | Previous Version | Text Only | Print | Product List | Glossary Off
Versions: 1 2 3 4 5 6 7 8 9 10 11 12 13 14 15 16 17 18 19 20 21 22 23 24 25 26 27 28 29 30 31 32 33 34 35 36 37 38 39 40 41 42 43 44 45 46 47 48 49 50

000
ASUS43 KTOP 210859
RWRKS

WEATHER ROUNDUP FOR KANSAS
NATIONAL WEATHER SERVICE GOODLAND KS
400 AM CDT THU AUG 21 2014

NOTE:  "FAIR" INDICATES FEW OR NO CLOUDS BELOW 12,000 FEET WITH NO
SIGNIFICANT WEATHER AND/OR OBSTRUCTIONS TO VISIBILITY.

KSZ001>006-013>018-027>032-041>047-211000-
NORTHWEST KANSAS

CITY           SKY/WX    TMP DP  RH WIND       PRES   REMARKS
GOODLAND       CLEAR     64  59  83 NW9       29.88F
HAYS           PTCLDY    81  59  47 S17G25    29.80S
HILL CITY      CLOUDY    83  61  47 S16G26    29.77S
RUSSELL        CLEAR     80  58  46 S17G26    29.78S
$$

KSZ061>065-074>080-084>089-211000-
SOUTHWEST KANSAS

CITY           SKY/WX    TMP DP  RH WIND       PRES   REMARKS
DODGE CITY     CLEAR     79  62  56 S14       29.85F
ELKHART          N/A     75  61  62 S10         N/A
GARDEN CITY    CLEAR     76  62  62 S10       29.85R
GREAT BEND     CLEAR     81  57  44 S17       29.82S
LIBERAL        CLEAR     79  61  53 S14       29.89S
$$

KSZ066>073-081>083-090>101-211000-
SOUTHEAST KANSAS

CITY           SKY/WX    TMP DP  RH WIND       PRES   REMARKS
CHANUTE        CLEAR     77  69  76 S12       29.92F
COFFEYVILLE    CLEAR     79  70  74 S13       29.92S
HUTCHINSON     CLEAR     78  65  63 S12       29.85S
NEWTON         CLEAR     79  63  57 S17G25    29.90S
PARSONS        CLEAR     76  69  79 S3        29.93F
WICHITA INTL   PTCLDY    78  67  68 S15       29.86S
WICHITA JABRA  CLEAR     78  67  68 S18G25    29.87S
WINFIELD       CLEAR     80  69  69 S15       29.89S
$$

KSZ007>012-019>026-033>040-048>060-102>105-211000-
NORTHEAST KANSAS

CITY           SKY/WX    TMP DP  RH WIND       PRES   REMARKS
CONCORDIA      PTCLDY    78  66  66 S20G25    29.79R
EMPORIA        CLEAR     77  68  73 S17       29.87F
LAWRENCE       PTCLDY    82  69  64 S17       29.87S
MANHATTAN      CLEAR     81  67  62 S14       29.82S
OLATHE IND     PTCLDY    78  68  71 S13       29.90F
OLATHE EXE     PTCLDY    76  68  76 S12       29.89F
SALINA         CLEAR     79  66  64 S12       29.81S
TOPEKA BILLARD PTCLDY    82  70  66 S15G21    29.85S
TOPEKA FORBES  CLOUDY    80  69  69 S16       29.86S
$$


USA.gov is the U.S. government's official web portal to all federal, state and local government web resources and services.